Location: Alpine
(43.1636°N, 111.0180°W)
Time: 05:43:06
(UTC+00:00)

Tiros 1 despin weight - Pass Details

Date: 29 May 2022
Orbit: 591 x 639 km, 48.2° (Epoch: 30 June)

Event Time Altitude Azimuth Distance (km) Brightness Sun altitude
Rises 00:25:50 0° 230° (SW) 2,885 ? 24.5°
Reaches altitude 10° 00:28:10 10° 227° (SW) 1,973 ? 24.1°
Maximum altitude 00:32:37 58° 148° (SSE) 711 ? 23.3°
Drops below altitude 10° 00:37:01 10° 70° (ENE) 1,951 ? 22.5°
Sets 00:39:19 0° 66° (ENE) 2,849 ? 22.1°
